www.pogodaiklimat.ru

Погода и климат >> Архив погоды >> Индонезия >> Бандунг


ПОГОДА в Бандунге

  • Прогноз погоды в Бандунге
  • Монитор погоды в Бандунге

АРХИВ ПОГОДЫ в Бандунге

Время (UTC), дата Ветер
(напр.,м/с)
 
Видим.   Явления Облачность Т
(С)
Тd
(С)
f
(%)
Тe
(С)
Тes
(С)
Комфортность P
(гПа)
Po
(гПа)
Тmin
(С)
Tmax
(С)
R
(мм)
R24
(мм)
S
(см)
12 15.01 штиль 0 2500 м гроза, ливневой дождь 9/6 500 м
[Cb cap Ac As Ci fib]
+21.0 +20.4 96 +26 +26 душно 1016.0 929.9 +28.4 34
15 15.01 З 8 7000 м мгла 8/4 540 м
[Sc Ac trans Ci fib]
+23.0 +20.7 87 +30 +30 очень
душно
1015.2 929.2
18 15.01 З 4 7000 м мгла 5/3 540 м
[Sc Ac trans Ci fib]
+23.1 +20.1 83 +30 +30 очень
душно
1013.7 927.8
21 15.01 З 3 7000 м мгла 3/1 540 м
[Sc Ci fib]
+22.7 +19.4 82 +29 +29 очень
душно
1012.9 927.0
00 16.01 штиль 0 2500 м дымка 6/4 540 м
[Sc Ac trans Ci fib]
+22.7 +21.9 95 +30 +32 очень
душно
1016.1 930.0 +21.8 45
03 16.01 СЗ 5 10 км 9/4 540 м
[Cu med, cong Ac trans Ci fib]
+25.6 +20.4 73 +32 +35 очень
душно
1014.6 928.7
06 16.01 СЗ 5 10 км 9/5 500 м
[Cu Sc Ac trans Ci fib]
+25.8 +20.6 73 +32 +35 очень
душно
1013.2 927.3
09 16.01 СЗ 5 10 км 8/4 540 м
[Sc Ac trans Ci fib]
+26.4 +20.7 71 +33 +34 очень
душно
1011.2 925.4
12 16.01 ЮЗ 3 3000 м гроза, ливневой дождь 10/6 480 м
[Cb cap Ac As Ci fib]
+22.8 +22.4 98 +31 +31 очень
душно
1014.1 928.2 +27.8 45
15 16.01 СЗ 4 6000 м мгла 6/3 540 м
[Sc Ac trans Ci fib]
+23.6 +20.6 83 +29 +29 душно 1015.0 920.6
18 16.01 СЗ 3 6000 м мгла 6/3 540 м
[Sc Ac trans Ci fib]
+22.8 +20.1 85 +29 +29 очень
душно
1013.1 927.2
21 16.01 СЗ 4 6000 м мгла 6/3 540 м
[Sc Ac trans Ci fib]
+22.2 +26.7 100 +30 +30 очень
душно
1012.1 926.3
00 17.01 СЗ 5 10 км 6/4 540 м
[Sc Ac trans Ci fib]
+23.9 +20.7 82 +30 +30 очень
душно
1013.6 927.7 +21.0
03 17.01 СЗ 6 10 км 6/4 540 м
[Cu med, cong Ac trans Ci fib]
+27.0 +20.9 69 +34 +37 очень
душно
1014.4 928.5
06 17.01 СЗ 8 10 км 6/4 540 м
[Cu med, cong Ac trans Ci fib]
+27.0 +20.9 69 +34 +35 очень
душно
1012.3 926.5
09 17.01 СЗ 9 10 км 6/4 500 м
[Cu Sc Ac trans Ci fib]
+27.4 +21.1 69 +35 +35 очень
душно
1010.5 928.4
12 17.01 СЗ 5 5000 м слаб. дождь 5/4 540 м
[Sc Ac As Ci fib]
+24.6 +18.9 71 +30 +30 очень
душно
1013.4 927.5 +28.8 0.0
15 17.01 СЗ 4 8000 м 4/3 540 м
[Sc Ac trans Ci fib]
+23.0 +20.2 84 +30 +30 очень
душно
1014.9 928.9 0.0
18 17.01 СЗ 3 7000 м слаб. дождь 6/4 540 м
[Sc Ac trans Ci fib]
+22.6 +20.1 86 +29 +29 очень
душно
1013.6 927.7 0.0
21 17.01 СЗ 3 5000 м слаб. дождь 8/5 540 м
[Sc Ac As Ci fib]
+21.4 +19.8 91 +26 +26 душно 1012.9 927.0 1
00 18.01 СЗ 5 10 км 6/4 540 м
[Sc Ac trans Ci fib]
+23.9 +20.7 82 +30 +30 очень
душно
1013.6 927.7 +21.0
03 18.01 З 3 10 км 6/4 540 м
[Cu med, cong Ac trans Ci fib]
+26.6 +20.3 68 +33 +40 очень
душно
1014.1 928.2
06 18.01 СЗ 6 10 км 6/4 540 м
[Cu med, cong Ac trans Ci fib]
+28.0 +21.5 68 +36 +40 очень
душно
1012.2 926.4
09 18.01 СЗ 4 5000 м мгла 9/6 450 м
[Cb cap Ac As Ci fib]
+25.6 +23.0 86 +34 +35 очень
душно
1012.1 926.3
12 18.01 С 4 8000 м 5/3 540 м
[Sc Ac trans Ci fib]
+22.8 +21.6 93 +30 +30 очень
душно
1012.8 926.9 +28.6 6
15 18.01 С 2 8000 м 5/3 540 м
[Sc Ac trans Ci fib]
+22.6 +21.4 93 +30 +30 очень
душно
1014.7 928.8 0.0
18 18.01 З 3 7000 м мгла 5/3 540 м
[Sc Ac trans Ci fib]
+23.0 +20.2 84 +30 +30 очень
душно
1013.6 927.7
21 18.01 штиль 0 5000 м мгла 6/3 540 м
[Sc Ac trans Ci fib]
+21.3 +20.7 96 +27 +27 душно 1012.2 926.4
00 19.01 З 2 8000 м мгла 6/3 540 м
[Sc As op Ci fib]
+23.2 +20.1 83 +30 +32 очень
душно
1014.4 928.5 +20.4 7
03 19.01 СЗ 4 10 км 8/4 540 м
[Sc Ac trans Ci fib]
+26.6 +21.3 73 +34 +38 очень
душно
1014.6 928.9
06 19.01 СЗ 5 10 км 8/4 540 м
[Cu med, cong Ac trans Ci fib]
+28.0 +21.9 69 +36 +40 очень
душно
1012.8 926.9
09 19.01 СЗ 4 5000 м мгла 9/6 450 м
[Cb cap Ac As Ci fib]
+25.6 +23.0 86 +34 +35 очень
душно
1012.1 926.3
12 19.01 СЗ 3 3000 м мгла 8/4 540 м
[Sc Ac As Ci fib]
+22.4 +21.6 95 +30 +30 очень
душно
1013.8 927.9 +28.0
18 19.01 штиль 0 2200 м дымка 6/4 540 м
[Sc Ac trans Ci fib]
+21.3 +21.0 98 +27 +27 душно 1014.0 928.1
21 19.01 штиль 0 2200 м мгла 6/4 540 м
[Sc Ac trans Ci fib]
+20.8 +19.9 95 +25 +25 комфорт 1013.5 927.6
00 20.01 СВ 2 3000 м мгла 9/4 540 м
[Sc Ac trans Ci fib]
+23.9 +21.7 88 +31 +31 очень
душно
1017.3 931.1 +19.6
03 20.01 СВ 4 6000 м мгла 10/4 540 м
[Cu med, cong Ac trans Ci fib]
+27.2 +20.2 66 +34 +37 очень
душно
1018.5 932.3
06 20.01 З 3 5000 м мгла 8/4 540 м
[Cu med, cong Ac trans Ci fib]
+27.8 +22.3 72 +36 +43 очень
душно
1015.7 929.6
09 20.01 СЗ 10 10 км 4/4 540 м
[Cu med, cong Ac trans Ci fib]
+26.2 +20.4 70 +32 +32 очень
душно
1012.0 926.2
12 20.01 З 3 3000 м мгла 8/4 540 м
[Sc Ac trans Ci fib]
+24.6 +22.7 89 +32 +32 очень
душно
1015.9 929.8 +29.0
15 20.01 З 2 5000 м слаб. дождь 9/6 540 м
[Sc Ac As Ci fib]
+22.0 +21.7 98 +29 +29 очень
душно
1016.1 930.0 1
21 20.01 ЮЗ 1 3000 м дымка 8/4 540 м
[Sc Ac As Ci fib]
+21.2 +20.3 95 +26 +26 душно 1013.7 927.8
00 21.01 ЮЗ 1 2200 м дымка 6/4 540 м
[Sc Ac trans Ci fib]
+21.6 +21.0 96 +27 +29 душно 1015.4 929.4 +20.4 9
03 21.01 З 3 7000 м мгла 5/3 540 м
[Cu hum Ac trans Ci fib]
+26.8 +21.2 71 +34 +42 очень
душно
1016.1 930.0
06 21.01 СЗ 7 10 км 5/4 540 м
[Cu med, cong Ac trans Ci fib]
+28.4 +21.9 68 +37 +40 очень
душно
1013.9 928.0
09 21.01 З 4 3000 м слаб. дождь 8/5 500 м
[Cu Sc Ac As Ci fib]
+22.0 +21.7 98 +29 +30 очень
душно
1013.4 927.5 0.0
12 21.01 С 3 6000 м слаб. дождь 8/4 540 м
[Sc Ac As Ci fib]
+22.2 +21.0 93 +29 +29 очень
душно
1015.0 929.0 +29.8 5
15 21.01 З 3 8000 м мгла {дождь} 8/3 540 м
[Sc As trans Ci fib]
+21.6 +20.0 91 +27 +27 душно 1016.4 930.3 0.0
18 21.01 З 2 7000 м мгла 5/3 540 м
[Sc Ac trans Ci fib]
+21.4 +20.8 96 +27 +27 душно 1015.1 929.1 0.0
21 21.01 З 4 7000 м мгла 9/4 540 м
[Sc As op Ci fib]
+21.9 +20.4 91 +28 +28 душно 1014.2 928.3
00 22.01 З 3 8000 м мгла 10/5 450 м
[St Ac As]
+21.8 +19.9 89 +27 +28 душно 1015.3 929.3 +20.4 5
03 22.01 СЗ 4 10 км 8/4 500 м
[Sc Ac As Ci fib]
+24.4 +20.4 78 +30 +35 очень
душно
1016.8 930.7
06 22.01 З 3 5000 м мгла 8/4 540 м
[Cu med, cong Ac trans Ci fib]
+27.8 +22.3 72 +36 +43 очень
душно
1015.7 929.6
09 22.01 С 9 8000 м мгла 9/6 450 м
[Cb cap Ac As Ci fib]
+23.2 +19.8 81 +30 +30 очень
душно
1014.5 928.6

 

Местоположение метеостанции Бандунг (Индонезия): широта -6.90 долгота 107.58 высота над уровнем моря 740 м.

В архиве по умолчанию представлена погода в Бандунге за последнюю неделю. Архивные данные за месяц целиком и за предыдущие месяцы, начиная с января 2011 года, Вы можете получить, выбрав интересующий диапазон дат из раскрывающегося списка и нажав кнопку "Ввод!".


*Определитесь, кто Вы:
робот инопланетянин человек

Внимание! Время в таблицах - всемирное. Для получения местного времени необходимо прибавить поправку, которая равна 7 ч.

Смотрите также архив погоды в соседних городах и на ближайших метеорологических станциях:

Погода в Цитеко (Индонезия) (75 км)
Погода в Сиребоне (Индонезия) (77 км)
Погода в Джакарте (Индонезия) (115 км)
Погода в Джакарта порту (Индонезия) (119 км)
Погода в Чуруге (Индонезия) (127 км)
Погода в Аэропорту Сукарно-Хатта (Индонезия) (134 км)
Погода в Тегале (Индонезия) (173 км)
Погода в Серанге (Индонезия) (182 км)
Погода в Чилачапе (Индонезия) (183 км)
Погода в Аэропорту Ахмад Яни (Индонезия) (309 км)

Пояснения к столбцам:

Ветер - указаны скорость ветра в м/с - средняя за 10 мин, порывы в срок и между сроками (в фигурных скобках) и направление, откуда дует ветер: С - северный, СВ - северо-восточный, В - восточный, ЮВ - юго-восточный, Ю - южный, ЮЗ - юго-западный, З - западный, СЗ - северо-западный.
Видимость - горизонтальная дальность видимости в метрах или километрах. При видимости от 1 до 10 км при отсутствии осадков обычно наблюдается дымка, при ухудшении видимости до 1 км и менее - туман. В сухую погоду видимость может ухудшаться дымом, пылью или мглою.
Явления - указаны атмосферные явления, наблюдавшиеся в срок или в последний час перед сроком; фигурными скобками обозначены явления, наблюдавшиеся между сроками (за 1-3 часа до срока); квадратными скобками обозначены град или гололедные отложения с указанием их диаметра в мм.
Облачность - указаны через наклонную черту общая и нижняя облачность в баллах и высота нижней границы облаков в метрах; квадратными скобками обозначены формы облаков: Ci - перистые, Cs - перисто-слоистые, Cc - перисто-кучевые, Ac - высококучевые, As - высокослоистые, Sc - слоисто-кучевые, Ns - слоисто-дождевые, Cu - кучевые, Cb - кучево-дождевые. Подробнее классификацию облаков см. в Атласе облаков (PDF).
T - Температура воздуха - температура, измеренная на высоте 2 м над землей.
Td - Температура точки росы - температура, при понижении до которой содержащийся в воздухе водяной пар достигнет насыщения.
f - Относительная влажность воздуха - влажноcть воздуха, измеренная на высоте 2 м над землей.
Te - Эффективная температура - температура, которую ощущает одетый по сезону человек в тени. Характеристика душности погоды. При расчете учитывается влияние влажности воздуха и скорости ветра на теплоощущения человека.
Tes - Эффективная температура на солнце - температура, которую ощущает человек, с поправкой на солнечный нагрев. Характеристика знойности погоды. Зависит от высоты солнца над горизонтом, облачности и скорости ветра. Ночью, в пасмурную погоду, а также при ветре 12 м/с и более поправка равна нулю.
P - Атмосферное давление - приведенное к уровню моря атмосферное давление.
Po - Атмосферное давление - измеренное на уровне метеостанции атмосферное давление.
Tmin - Минимальная температура - минимум температуры воздуха на высоте 2 м над землей.
Tmax - Максимальная температура - максимум температуры воздуха на высоте 2 м над землей.
R - Количество осадков - Количество выпавших осадков за период времени, мм. При наведении курсора мыши на число - период времени, за который выпало указанное количество осадков.
R24 - Количество осадков - Количество выпавших осадков за 24 часа, мм.
S - Снежный покров - Высота снежного покрова, см. При наведении курсора мыши на число - состояние снежного покрова и степень покрытия местности в баллах.